User: anonymous   Login
Location: Chequamegon National Forest
(46.1070°N, 90.8420°W)
Time: 06:22:32
(UTC-05:00)
Language:

ISS - Orbit

View from above orbital plane
View from above orbital plane
View from above satellite
View from above satellite

Ground track
Ground track

The orbit data is extracted from the following two-line orbital elements,

1 25544U 98067A   15090.10454058  .00015520  00000-0  22997-3 0  9997
2 25544 051.6452 114.0983 0006827 155.8245 310.6022 15.55428211935885
Epoch (UTC): 31 March 2015 02:30:32
Eccentricity: 0.0006827
inclination: 51.6452°
perigee height: 396 km
apogee height: 405 km
right ascension of ascending node: 114.0983°
argument of perigee: 155.8245°
revolutions per day: 15.55428211
mean anomaly at epoch: 310.6022°
orbit number at epoch: 93588

The dashed part of the orbit path shows where the satellite is in the earth's shadow,  

DLR